[[{"header":{"parameterUnit":"m.s-1","parameterCategory":1,"la1":30.2991,"la2":30.254,"lo1":-89.0895,"lo2":-89.0444,"dy":0.0017,"dx":0.0017,"nx":28,"ny":28,"refTime":"2025-04-15T03:00:00:Z","depth":0,"parameterNumber":2,"parameterNumberName":"U-component_of_WINDS"},"data":[0,0,0,0,0,0,0,0,0,0,0,0,0,0,0,0,0,0,0,0,0,0,0,0,0,0,0,0,0,0,0,0,0,0,0,0,0,0,0,0,0,0,0,0,0,0,0,0,0,0,0,0,0,0,0,0,0,0,-1.0977,-1.0976,0,-1.0871,-1.087,-1.0869,-1.0821,-1.0821,-1.0821,-1.0821,-1.0708,-1.0705,-1.0702,0,0,0,0,0,0,0,0,0,0,0,0,0,-1.1133,-1.1131,-1.0977,-1.0976,-1.0975,-1.0871,-1.087,-1.0868,-1.0821,-1.0821,-1.0821,-1.0821,-1.0709,-1.0705,-1.0701,0,0,0,0,0,0,0,0,0,0,0,0,0,-1.105,-1.113,-1.0978,-1.0939,-1.0934,-1.0872,-1.087,-1.0868,-1.0821,-1.0821,-1.0821,-1.0821,-1.071,-1.0706,-1.0701,-1.0668,0,0,-1.0686,-1.0684,0,0,0,0,0,0,0,0,-1.1055,-1.1044,-1.0946,-1.0941,-1.0936,-1.086,-1.0883,-1.0801,-1.0821,-1.0864,-1.0821,-1.0821,-1.0758,-1.0749,-1.0729,-1.0663,-1.0658,-1.0686,-1.0683,-1.0681,-1.068,0,0,0,0,0,0,0,-1.1061,-1.1049,-1.0935,-1.0944,-1.0938,-1.0925,-1.0913,-1.0867,-1.0811,-1.086,-1.0856,-1.0844,-1.0755,-1.0733,-1.0726,-1.0656,-1.0686,-1.0682,-1.0679,-1.0677,-1.0555,-1.0555,0,0,0,0,0,0,-1.1074,-1.1054,-1.0939,-1.0932,-1.0997,-1.0922,-1.0909,-1.0884,-1.0811,-1.08,-1.0844,-1.0843,-1.0741,-1.0731,-1.0722,-1.0677,-1.0681,-1.0677,-1.0674,-1.0555,-1.0555,-1.0554,0,0,0,0,0,0,-1.1077,-1.1064,-1.0943,-1.0992,-1.0975,-1.0919,-1.0891,-1.0882,-1.086,-1.08,-1.0789,-1.0833,-1.0741,-1.0728,-1.0681,-1.0672,-1.0675,-1.067,-1.0556,-1.0555,-1.0555,-1.0588,0,0,0,0,0,0,-1.1082,-1.1065,-1.1054,-1.0992,-1.0973,-1.0906,-1.0891,-1.0879,-1.0852,-1.0849,-1.0786,-1.0776,-1.074,-1.0689,-1.0677,-1.0666,-1.0667,-1.0556,-1.0556,-1.0555,-1.0587,-1.0588,-1.0589,0,0,0,0,0,-1.1088,-1.1067,-1.1053,-1.104,-1.0958,-1.0906,-1.0895,-1.0856,-1.0852,-1.0838,-1.0799,-1.0778,-1.0675,-1.0684,-1.067,-1.0658,-1.0557,-1.0556,-1.0555,-1.0587,-1.0588,-1.0589,0,0,0,0,0,0,-1.1127,-1.1058,-1.1042,-1.1001,-1.096,-1.0898,-1.088,-1.0859,-1.0817,-1.0815,-1.0767,-1.0753,-1.071,-1.0679,-1.0691,-1.0621,-1.0614,-1.061,-1.0643,-1.0644,-1.0645,-1.0653,-1.0663,0,0,0,0,0,-1.1132,-1.1097,-1.1038,-1.1007,-1.0987,-1.0938,-1.0914,-1.0887,-1.0842,-1.0824,-1.0781,-1.0737,-1.0694,-1.0667,-1.0625,-1.0583,-1.0567,-1.0567,-1.0568,-1.0569,-1.0566,-1.0539,-1.0538,-1.0551,-1.0551,-1.0551,0,0,-1.1139,-1.1097,-1.1078,-1.1014,-1.0979,-1.0942,-1.0923,-1.0886,-1.0857,-1.0817,-1.0771,-1.0738,-1.0685,-1.064,-1.0618,-1.0613,-1.0559,-1.0568,-1.0569,-1.0566,-1.0538,-1.0537,-1.0536,-1.0551,-1.0551,-1.0551,0,0,-1.1135,-1.1101,-1.1071,-1.1036,-1.0984,-1.095,-1.0943,-1.0884,-1.0861,-1.0814,-1.0783,-1.0747,-1.0676,-1.0639,-1.0611,-1.0591,-1.0569,-1.0579,-1.0584,-1.0558,-1.0557,-1.0556,-1.0547,-1.0545,-1.0576,-1.0576,-1.0576,0,-1.1151,-1.1097,-1.1058,-1.1022,-1.0993,-1.0957,-1.0925,-1.0892,-1.0828,-1.0808,-1.0804,-1.0713,-1.0674,-1.0619,-1.0614,-1.0593,-1.0582,-1.0585,-1.0561,-1.0559,-1.0557,-1.0549,-1.0546,-1.0578,-1.0577,-1.0577,-1.0577,0,-1.1118,-1.1081,-1.1063,-1.1003,-1.0973,-1.0939,-1.0892,-1.0866,-1.0842,-1.0809,-1.076,-1.0712,-1.0659,-1.0644,-1.062,-1.0585,-1.0583,-1.0571,-1.0562,-1.0558,-1.0549,-1.0546,-1.058,-1.0579,-1.0579,-1.0578,0,0,-1.1137,-1.1055,-1.1049,-1.1021,-1.096,-1.0929,-1.0892,-1.0842,-1.0819,-1.0776,-1.0743,-1.0682,-1.067,-1.0638,-1.0609,-1.0587,-1.0572,-1.0576,-1.0574,-1.0576,-1.0528,-1.0538,-1.0535,-1.0557,-1.0556,-1.0556,-1.0532,0,-1.1123,-1.1058,-1.1021,-1.0971,-1.0934,-1.0898,-1.0866,-1.0824,-1.0791,-1.0754,-1.0717,-1.0675,-1.0663,-1.0643,-1.0619,-1.0579,-1.0562,-1.058,-1.0524,-1.0522,-1.0537,-1.053,-1.054,-1.052,-1.0528,-1.0528,-1.0527,0,-1.1099,-1.1057,-1.1004,-1.0946,-1.0929,-1.0901,-1.085,-1.0816,-1.0767,-1.0744,-1.0708,-1.0679,-1.0637,-1.0633,-1.0573,-1.0586,-1.0561,-1.0537,-1.0535,-1.0528,-1.0524,-1.0521,-1.0513,-1.051,-1.0522,-1.0522,-1.0523,0,-1.1116,-1.1047,-1.1005,-1.0982,-1.0913,-1.0894,-1.0864,-1.0815,-1.0787,-1.0742,-1.0722,-1.0673,-1.0645,-1.0607,-1.0564,-1.0565,-1.0508,-1.05,-1.0486,-1.0487,-1.0475,-1.0476,-1.0462,-1.0461,-1.0461,-1.0461,-1.0461,0,-1.1105,-1.1073,-1.1012,-1.0986,-1.0949,-1.0905,-1.0869,-1.0836,-1.0792,-1.0757,-1.0723,-1.0691,-1.0637,-1.0598,-1.0564,-1.0518,-1.0507,-1.0486,-1.0477,-1.0488,-1.0491,-1.047,-1.047,-1.046,-1.046,-1.046,-1.046,0,-1.1118,-1.1076,-1.1028,-1.0967,-1.095,-1.0925,-1.0872,-1.0844,-1.081,-1.0766,-1.0754,-1.0699,-1.0651,-1.0605,-1.054,-1.0517,-1.0471,-1.046,-1.0488,-1.0483,-1.0471,-1.0472,-1.0442,-1.0435,-1.044,-1.044,-1.044,0,-1.1113,-1.1088,-1.1024,-1.0999,-1.097,-1.0931,-1.0901,-1.0857,-1.0827,-1.0768,-1.0747,-1.0697,-1.0654,-1.0578,-1.0531,-1.0481,-1.0468,-1.046,-1.046,-1.0471,-1.0465,-1.0467,-1.0463,-1.0461,-1.0461,-1.0461,-1.0462,0,-1.1108,-1.1088,-1.1048,-1.1001,-1.0967,-1.0927,-1.0885,-1.0866,-1.0813,-1.0781,-1.0732,-1.0699,-1.0633,-1.0582,-1.0526,-1.0493,-1.0467,-1.0462,-1.0456,-1.0467,-1.0483,-1.0473,-1.0489,-1.0463,-1.0463,-1.0463,-1.0463,-1.0463,-1.1111,-1.1086,-1.1037,-1.0993,-1.0957,-1.0919,-1.089,-1.0852,-1.0811,-1.0754,-1.073,-1.068,-1.0628,-1.0551,-1.0518,-1.0476,-1.047,-1.0462,-1.0459,-1.0457,-1.0459,-1.0491,-1.0466,-1.0466,-1.0466,-1.0466,-1.0466,0,-1.1103,-1.107,-1.103,-1.0973,-1.0938,-1.0919,-1.0871,-1.0842,-1.0799,-1.0754,-1.0713,-1.0655,-1.0605,-1.0554,-1.0501,-1.0478,-1.0465,-1.0465,-1.0466,-1.0458,-1.0468,-1.0478,-1.0477,-1.0477,-1.0477,-1.0477,-1.0477,-1.0477,-1.1095,-1.1052,-1.1026,-1.0964,-1.093,-1.0881,-1.0856,-1.0819,-1.0783,-1.0721,-1.068,-1.0647,-1.0599,-1.0542,-1.0494,-1.048,-1.0462,-1.0465,-1.0448,-1.0458,-1.0458,-1.0457,-1.0466,-1.0462,-1.0462,-1.0441,-1.0441,-1.0441]},{"header":{"parameterUnit":"m.s-1","parameterCategory":1,"la1":30.2991,"la2":30.254,"lo1":-89.0895,"lo2":-89.0444,"dy":0.0017,"dx":0.0017,"nx":28,"ny":28,"refTime":"2025-04-15T03:00:00:Z","depth":0,"parameterNumber":3,"parameterNumberName":"V-component_of_WINDS"},"data":[0,0,0,0,0,0,0,0,0,0,0,0,0,0,0,0,0,0,0,0,0,0,0,0,0,0,0,0,0,0,0,0,0,0,0,0,0,0,0,0,0,0,0,0,0,0,0,0,0,0,0,0,0,0,0,0,0,0,-6.0875,-6.0875,0,-6.0895,-6.0895,-6.0896,-6.0904,-6.0904,-6.0904,-6.0904,-6.0918,-6.0919,-6.0919,0,0,0,0,0,0,0,0,0,0,0,0,0,-6.0841,-6.0841,-6.0875,-6.0875,-6.0876,-6.0895,-6.0895,-6.0896,-6.0904,-6.0904,-6.0904,-6.0904,-6.0918,-6.0919,-6.0919,0,0,0,0,0,0,0,0,0,0,0,0,0,-6.0857,-6.0842,-6.0875,-6.0882,-6.0883,-6.0895,-6.0895,-6.0896,-6.0904,-6.0904,-6.0904,-6.0904,-6.0918,-6.0919,-6.0919,-6.0924,0,0,-6.0921,-6.0922,0,0,0,0,0,0,0,0,-6.0857,-6.0859,-6.0881,-6.0882,-6.0883,-6.0897,-6.0889,-6.0905,-6.0904,-6.0896,-6.0904,-6.0904,-6.0911,-6.0912,-6.0916,-6.0924,-6.0925,-6.0921,-6.0922,-6.0922,-6.0922,0,0,0,0,0,0,0,-6.0855,-6.0858,-6.0883,-6.0881,-6.0882,-6.0883,-6.0886,-6.0892,-6.0903,-6.0897,-6.0897,-6.09,-6.0911,-6.0915,-6.0916,-6.0925,-6.0921,-6.0922,-6.0922,-6.0922,-6.094,-6.094,0,0,0,0,0,0,-6.0854,-6.0857,-6.0882,-6.0883,-6.087,-6.0884,-6.0887,-6.0892,-6.0903,-6.0905,-6.09,-6.09,-6.0914,-6.0915,-6.0917,-6.0924,-6.0922,-6.0923,-6.0923,-6.094,-6.094,-6.094,0,0,0,0,0,0,-6.0853,-6.0856,-6.0881,-6.087,-6.0874,-6.0885,-6.0891,-6.0893,-6.0897,-6.0906,-6.0907,-6.0902,-6.0914,-6.0916,-6.0923,-6.0924,-6.0923,-6.0923,-6.094,-6.094,-6.094,-6.0936,0,0,0,0,0,0,-6.0852,-6.0856,-6.0858,-6.0871,-6.0874,-6.0888,-6.0891,-6.0893,-6.0898,-6.0899,-6.0908,-6.0909,-6.0914,-6.0922,-6.0923,-6.0925,-6.0924,-6.094,-6.094,-6.094,-6.0936,-6.0936,-6.0936,0,0,0,0,0,-6.0851,-6.0854,-6.0858,-6.0861,-6.0878,-6.0888,-6.089,-6.0897,-6.0898,-6.0901,-6.0907,-6.0909,-6.0924,-6.0922,-6.0924,-6.0926,-6.094,-6.094,-6.094,-6.0936,-6.0936,-6.0936,0,0,0,0,0,0,-6.0838,-6.0856,-6.086,-6.0868,-6.0877,-6.089,-6.0892,-6.0897,-6.0904,-6.0904,-6.0911,-6.0913,-6.0919,-6.0923,-6.0921,-6.0932,-6.0932,-6.0933,-6.0929,-6.0929,-6.0929,-6.0927,-6.0924,0,0,0,0,0,-6.0837,-6.0846,-6.086,-6.0866,-6.087,-6.0881,-6.0885,-6.0891,-6.0899,-6.0902,-6.0909,-6.0915,-6.0922,-6.0926,-6.0932,-6.0938,-6.094,-6.094,-6.094,-6.094,-6.094,-6.0944,-6.0945,-6.0941,-6.0941,-6.0941,0,0,-6.0833,-6.0844,-6.0849,-6.0864,-6.0871,-6.0879,-6.0883,-6.0891,-6.0896,-6.0902,-6.091,-6.0916,-6.0923,-6.093,-6.0934,-6.0934,-6.0942,-6.094,-6.094,-6.094,-6.0945,-6.0945,-6.0945,-6.0941,-6.0941,-6.0941,0,0,-6.0831,-6.084,-6.0847,-6.0855,-6.0868,-6.0875,-6.0877,-6.089,-6.0894,-6.0903,-6.0908,-6.0914,-6.0925,-6.0931,-6.0935,-6.0939,-6.0941,-6.0941,-6.094,-6.0944,-6.0945,-6.0945,-6.0946,-6.0947,-6.0941,-6.0941,-6.0941,0,-6.0824,-6.0838,-6.0849,-6.0858,-6.0864,-6.0874,-6.088,-6.0887,-6.09,-6.0903,-6.0904,-6.092,-6.0925,-6.0935,-6.0936,-6.0939,-6.0941,-6.0939,-6.0944,-6.0945,-6.0945,-6.0946,-6.0947,-6.0941,-6.0941,-6.0941,-6.0941,0,-6.0829,-6.0839,-6.0843,-6.0858,-6.0865,-6.0872,-6.0884,-6.089,-6.0895,-6.0902,-6.0911,-6.092,-6.0928,-6.0931,-6.0935,-6.0941,-6.0941,-6.0943,-6.0943,-6.0945,-6.0946,-6.0947,-6.0941,-6.0941,-6.0941,-6.0941,0,0,-6.0816,-6.0842,-6.0843,-6.0851,-6.0867,-6.0873,-6.0881,-6.0893,-6.0898,-6.0907,-6.0913,-6.0924,-6.0927,-6.0932,-6.0937,-6.0941,-6.0944,-6.0943,-6.0943,-6.0942,-6.0952,-6.095,-6.095,-6.0947,-6.0947,-6.0947,-6.0951,0,-6.0816,-6.0833,-6.0845,-6.0857,-6.0866,-6.0877,-6.0884,-6.0894,-6.0902,-6.0909,-6.0917,-6.0925,-6.0928,-6.0931,-6.0936,-6.0943,-6.0946,-6.0943,-6.0952,-6.0952,-6.0949,-6.0951,-6.0948,-6.0951,-6.0952,-6.0952,-6.0952,0,-6.0817,-6.0829,-6.0843,-6.0861,-6.0865,-6.0871,-6.0884,-6.0892,-6.0903,-6.0909,-6.0916,-6.0923,-6.0931,-6.0932,-6.0943,-6.0941,-6.0946,-6.095,-6.095,-6.095,-6.0951,-6.0951,-6.0953,-6.0953,-6.0953,-6.0953,-6.0953,0,-6.0807,-6.0826,-6.0838,-6.0844,-6.0865,-6.087,-6.0878,-6.089,-6.0897,-6.0908,-6.0912,-6.0922,-6.0928,-6.0935,-6.0944,-6.0944,-6.0955,-6.0956,-6.0958,-6.0958,-6.0959,-6.0958,-6.0961,-6.0963,-6.0963,-6.0963,-6.0963,0,-6.0804,-6.0812,-6.0834,-6.0841,-6.085,-6.0864,-6.0872,-6.0881,-6.0893,-6.0901,-6.091,-6.0917,-6.0929,-6.0937,-6.0944,-6.0952,-6.0954,-6.0958,-6.096,-6.0957,-6.0957,-6.0959,-6.0959,-6.0963,-6.0963,-6.0963,-6.0963,0,-6.0793,-6.0808,-6.0821,-6.0842,-6.0847,-6.0853,-6.0869,-6.0876,-6.0886,-6.0896,-6.0899,-6.0913,-6.0924,-6.0934,-6.0947,-6.0952,-6.096,-6.0962,-6.0957,-6.0957,-6.0959,-6.0959,-6.0963,-6.0964,-6.0965,-6.0965,-6.0965,0,-6.079,-6.0797,-6.0819,-6.0827,-6.0836,-6.0847,-6.0856,-6.087,-6.0878,-6.0894,-6.0899,-6.0911,-6.0921,-6.0937,-6.0947,-6.0957,-6.096,-6.0961,-6.0961,-6.0959,-6.0959,-6.0959,-6.0959,-6.096,-6.096,-6.0959,-6.0959,0,-6.0783,-6.0791,-6.0804,-6.082,-6.0831,-6.0843,-6.0856,-6.0861,-6.0878,-6.0886,-6.0899,-6.0907,-6.0922,-6.0934,-6.0946,-6.0953,-6.0959,-6.096,-6.0961,-6.0957,-6.0954,-6.0956,-6.0955,-6.0959,-6.0959,-6.0959,-6.0959,-6.0959,-6.0775,-6.0783,-6.0801,-6.0815,-6.0828,-6.084,-6.0848,-6.0861,-6.0872,-6.0888,-6.0895,-6.0908,-6.0921,-6.0939,-6.0946,-6.0955,-6.0956,-6.0958,-6.0958,-6.0958,-6.0958,-6.0954,-6.0957,-6.0957,-6.0957,-6.0957,-6.0958,0,-6.0769,-6.0782,-6.0796,-6.0815,-6.0827,-6.0835,-6.0851,-6.0859,-6.0871,-6.0884,-6.0895,-6.091,-6.0922,-6.0935,-6.0947,-6.0952,-6.0955,-6.0955,-6.0954,-6.0956,-6.0956,-6.0954,-6.0952,-6.0952,-6.0952,-6.0952,-6.0952,-6.0952,-6.0767,-6.0781,-6.0791,-6.0811,-6.0824,-6.0839,-6.0847,-6.0858,-6.087,-6.0887,-6.0898,-6.0908,-6.0921,-6.0935,-6.0946,-6.0949,-6.0953,-6.0952,-6.0956,-6.0955,-6.0955,-6.0956,-6.0954,-6.0953,-6.0953,-6.0955,-6.0955,-6.0955]}]]